Location: Arthurs Seat
(13.1500°N, 59.6000°W)
Time: 08:35:39
(UTC+00:00)

Cosmos 44 - Pass Details

Date: 25 August 2019
Orbit: 589 x 773 km, 65.1° (Epoch: 23 September)

Event Time Altitude Azimuth Distance (km) Brightness Sun altitude
Rises 23:16:04 0° 351° (N) 2,828 6.8 -15.6°
Reaches altitude 10° 23:18:29 10° 1° (N) 1,915 5.7 -16.1°
Maximum altitude 23:22:21 33° 66° (ENE) 998 3.7 -17.0°
Enters shadow 23:22:54 32° 82° (E) 1,024 3.7 -17.2°
